| time (UTC) | temp C | wind direction | speed KPH | gust KPH | rain 1hr cm | rain 24hr cm | rain mn cm | humidity % | barometer mb |
| 20260505160802 | 27 | 355 | 0.0 | 1.6 | 0.00 | 0.71 | 0.71 | 87 | 1009.6 |
| 20260505160300 | 27 | 338 | 1.6 | 1.6 | 0.00 | 0.71 | 0.71 | 87 | 1009.7 |
| 20260505153238 | 27 | 335 | 1.6 | 1.6 | 0.00 | 0.71 | 0.71 | 87 | 1009.7 |
| 20260505152735 | 27 | 353 | 1.6 | 3.2 | 0.00 | 0.71 | 0.71 | 87 | 1009.7 |
| 20260505152231 | 27 | 0 | 0.0 | 0.0 | 0.00 | 0.71 | 0.71 | 87 | 1009.6 |
| 20260505151726 | 27 | 15 | 0.0 | 1.6 | 0.00 | 0.71 | 0.71 | 87 | 1009.8 |
| 20260505151224 | 27 | 7 | 0.0 | 1.6 | 0.00 | 0.71 | 0.71 | 88 | 1009.9 |
| 20260505150720 | 27 | 9 | 0.0 | 1.6 | 0.00 | 0.71 | 0.71 | 88 | 1009.8 |
| 20260505150217 | 27 | 11 | 0.0 | 1.6 | 0.00 | 0.71 | 0.71 | 88 | 1009.9 |
| 20260505140645 | 27 | 11 | 0.0 | 1.6 | 0.00 | 0.71 | 0.71 | 88 | 1010.0 |
| 20260505140142 | 27 | 11 | 0.0 | 1.6 | 0.00 | 0.71 | 0.71 | 88 | 1010.0 |
| 20260505130106 | 25 | 283 | 3.2 | 3.2 | 0.00 | 0.71 | 0.71 | 90 | 1009.8 |
| 20260505124555 | 25 | 304 | 1.6 | 9.7 | 0.00 | 0.71 | 0.71 | 90 | 1009.7 |
| 20260505124052 | 25 | 304 | 1.6 | 9.7 | 0.00 | 0.71 | 0.71 | 90 | 1009.7 |
| 20260505123548 | 25 | 282 | 4.8 | 9.7 | 0.00 | 0.71 | 0.71 | 90 | 1009.7 |
| 20260505123045 | 25 | 275 | 4.8 | 6.4 | 0.00 | 0.71 | 0.71 | 91 | 1009.5 |
| 20260505122542 | 25 | 321 | 3.2 | 9.7 | 0.00 | 0.71 | 0.71 | 91 | 1009.8 |
| 20260505122038 | 25 | 331 | 6.4 | 6.4 | 0.00 | 0.71 | 0.71 | 91 | 1009.7 |
| 20260505121534 | 25 | 274 | 11.3 | 20.9 | 0.00 | 0.71 | 0.71 | 91 | 1009.6 |
| 20260505121031 | 25 | 289 | 6.4 | 12.9 | 0.18 | 0.71 | 0.71 | 91 | 1009.6 |
| 20260505120529 | 25 | 321 | 12.9 | 16.1 | 0.18 | 0.71 | 0.71 | 91 | 1009.3 |
| 20260505120024 | 25 | 324 | 14.5 | 20.9 | 0.00 | 0.69 | 0.69 | 91 | 1009.1 |
| 20260505115519 | 25 | 333 | 19.3 | 24.1 | 0.00 | 0.69 | 0.69 | 91 | 1009.1 |
| 20260505115017 | 25 | 307 | 12.9 | 22.5 | 0.00 | 0.69 | 0.69 | 91 | 1009.5 |
| 20260505114513 | 26 | 344 | 22.5 | 33.8 | 0.00 | 0.69 | 0.69 | 91 | 1009.3 |
| 20260505114010 | 26 | 326 | 17.7 | 22.5 | 0.00 | 0.69 | 0.69 | 91 | 1009.1 |
| 20260505113506 | 26 | 8 | 3.2 | 9.7 | 1.19 | 0.69 | 0.69 | 91 | 1008.8 |
| 20260505113003 | 25 | 359 | 12.9 | 22.5 | 1.32 | 0.69 | 0.69 | 91 | 1009.0 |
| 20260505112459 | 26 | 16 | 9.7 | 12.9 | 0.00 | 0.46 | 0.46 | 91 | 1008.9 |
| 20260505111956 | 26 | 335 | 3.2 | 9.7 | 0.00 | 0.46 | 0.46 | 91 | 1008.0 |
| 20260505111455 | 26 | 317 | 6.4 | 12.9 | 0.18 | 0.46 | 0.46 | 90 | 1007.9 |
| 20260505110952 | 26 | 287 | 11.3 | 14.5 | 1.98 | 0.46 | 0.46 | 90 | 1008.2 |
| 20260505110449 | 26 | 17 | 16.1 | 20.9 | 2.11 | 0.41 | 0.41 | 89 | 1008.2 |
| 20260505101920 | 31 | 163 | 12.9 | 35.4 | 0.00 | 0.00 | 0.00 | 74 | 1006.8 |
| 20260505101415 | 31 | 156 | 17.7 | 22.5 | 0.00 | 0.00 | 0.00 | 72 | 1006.9 |
| 20260505100911 | 31 | 162 | 12.9 | 20.9 | 0.00 | 0.00 | 0.00 | 73 | 1006.7 |
| 20260505100408 | 31 | 119 | 22.5 | 25.7 | 0.00 | 0.00 | 0.00 | 73 | 1006.6 |
| 20260505095903 | 31 | 129 | 22.5 | 29.0 | 0.00 | 0.00 | 0.00 | 72 | 1006.7 |
| 20260505095401 | 31 | 155 | 12.9 | 22.5 | 0.00 | 0.00 | 0.00 | 72 | 1006.7 |
| 20260505094857 | 32 | 155 | 27.4 | 33.8 | 0.00 | 0.00 | 0.00 | 71 | 1006.3 |
| 20260505094354 | 32 | 137 | 9.7 | 20.9 | 0.00 | 0.00 | 0.00 | 70 | 1006.5 |
| 20260505093850 | 32 | 157 | 9.7 | 20.9 | 0.00 | 0.00 | 0.00 | 70 | 1006.3 |
| 20260505093347 | 32 | 128 | 27.4 | 30.6 | 0.00 | 0.00 | 0.00 | 69 | 1006.1 |
| 20260505092844 | 32 | 175 | 17.7 | 25.7 | 0.00 | 0.00 | 0.00 | 69 | 1006.2 |
| 20260505092343 | 32 | 152 | 17.7 | 24.1 | 0.00 | 0.00 | 0.00 | 68 | 1006.1 |
| 20260505091839 | 32 | 65 | 3.2 | 27.4 | 0.00 | 0.00 | 0.00 | 68 | 1006.0 |
| 20260505091338 | 33 | 213 | 20.9 | 27.4 | 0.00 | 0.00 | 0.00 | 67 | 1006.0 |
| 20260505090835 | 33 | 52 | 12.9 | 22.5 | 0.00 | 0.00 | 0.00 | 67 | 1006.1 |
| 20260505090333 | 33 | 173 | 12.9 | 22.5 | 0.00 | 0.00 | 0.00 | 66 | 1006.2 |
| 20260505085830 | 33 | 123 | 9.7 | 17.7 | 0.00 | 0.00 | 0.00 | 66 | 1006.2 |
| 20260505085328 | 33 | 168 | 8.0 | 22.5 | 0.00 | 0.00 | 0.00 | 67 | 1006.0 |
| 20260505084826 | 33 | 109 | 14.5 | 17.7 | 0.00 | 0.00 | 0.00 | 65 | 1006.0 |
| 20260505084324 | 33 | 164 | 8.0 | 22.5 | 0.00 | 0.00 | 0.00 | 65 | 1005.8 |
| 20260505083821 | 33 | 124 | 9.7 | 20.9 | 0.00 | 0.00 | 0.00 | 65 | 1006.0 |
| 20260505083318 | 33 | 77 | 11.3 | 20.9 | 0.00 | 0.00 | 0.00 | 66 | 1006.0 |
| 20260505082814 | 33 | 148 | 14.5 | 22.5 | 0.00 | 0.00 | 0.00 | 64 | 1006.1 |
| 20260505082311 | 33 | 118 | 16.1 | 22.5 | 0.00 | 0.00 | 0.00 | 65 | 1005.9 |
| 20260505081808 | 33 | 129 | 12.9 | 22.5 | 0.00 | 0.00 | 0.00 | 64 | 1005.9 |
| 20260505081304 | 33 | 119 | 9.7 | 20.9 | 0.00 | 0.00 | 0.00 | 64 | 1006.1 |
| 20260505080801 | 33 | 141 | 11.3 | 22.5 | 0.00 | 0.00 | 0.00 | 64 | 1005.9 |
| 20260505080257 | 33 | 133 | 12.9 | 24.1 | 0.00 | 0.00 | 0.00 | 65 | 1006.2 |
| 20260505075752 | 33 | 134 | 17.7 | 22.5 | 0.00 | 0.00 | 0.00 | 64 | 1006.2 |
| 20260505075250 | 33 | 137 | 19.3 | 24.1 | 0.00 | 0.00 | 0.00 | 65 | 1006.2 |
| 20260505074747 | 33 | 168 | 14.5 | 24.1 | 0.00 | 0.00 | 0.00 | 65 | 1006.3 |
| 20260505074244 | 34 | 123 | 16.1 | 24.1 | 0.00 | 0.00 | 0.00 | 63 | 1006.4 |
| 20260505073742 | 33 | 212 | 8.0 | 11.3 | 0.00 | 0.00 | 0.00 | 64 | 1006.4 |
| 20260505073239 | 33 | 178 | 4.8 | 14.5 | 0.00 | 0.00 | 0.00 | 64 | 1006.3 |
| 20260505072736 | 32 | 154 | 8.0 | 14.5 | 0.00 | 0.00 | 0.00 | 65 | 1006.4 |
| 20260505072232 | 32 | 184 | 9.7 | 12.9 | 0.00 | 0.00 | 0.00 | 66 | 1006.7 |
| 20260505071727 | 32 | 153 | 11.3 | 17.7 | 0.00 | 0.00 | 0.00 | 68 | 1006.8 |
| 20260505071225 | 31 | 121 | 12.9 | 16.1 | 0.00 | 0.00 | 0.00 | 69 | 1007.0 |
| 20260505070722 | 31 | 196 | 9.7 | 16.1 | 0.00 | 0.00 | 0.00 | 69 | 1006.9 |
| 20260505070218 | 32 | 119 | 17.7 | 25.7 | 0.00 | 0.00 | 0.00 | 70 | 1007.0 |
| 20260505065714 | 32 | 130 | 14.5 | 24.1 | 0.00 | 0.00 | 0.00 | 69 | 1007.3 |
| 20260505065210 | 33 | 128 | 8.0 | 16.1 | 0.00 | 0.00 | 0.00 | 67 | 1007.2 |
| 20260505064708 | 33 | 79 | 1.6 | 12.9 | 0.00 | 0.00 | 0.00 | 61 | 1007.3 |
| 20260505064206 | 34 | 90 | 6.4 | 9.7 | 0.00 | 0.00 | 0.00 | 60 | 1007.5 |
| 20260505063702 | 35 | 93 | 8.0 | 12.9 | 0.00 | 0.00 | 0.00 | 59 | 1007.4 |
| 20260505063159 | 34 | 42 | 3.2 | 11.3 | 0.00 | 0.00 | 0.00 | 59 | 1007.6 |
| 20260505062655 | 34 | 69 | 3.2 | 4.8 | 0.00 | 0.00 | 0.00 | 59 | 1007.7 |
| 20260505062153 | 34 | 65 | 3.2 | 3.2 | 0.00 | 0.00 | 0.00 | 59 | 1007.9 |
| 20260505061650 | 33 | 351 | 3.2 | 12.9 | 0.00 | 0.00 | 0.00 | 60 | 1007.9 |
| 20260505061148 | 34 | 21 | 6.4 | 6.4 | 0.00 | 0.00 | 0.00 | 59 | 1008.0 |
| 20260505060645 | 34 | 46 | 4.8 | 4.8 | 0.00 | 0.00 | 0.00 | 60 | 1008.1 |
| 20260505060142 | 35 | 324 | 4.8 | 6.4 | 0.00 | 0.00 | 0.00 | 59 | 1008.1 |
| 20260505055637 | 35 | 249 | 1.6 | 3.2 | 0.00 | 0.00 | 0.00 | 59 | 1008.3 |
| 20260505055134 | 35 | 356 | 3.2 | 4.8 | 0.00 | 0.00 | 0.00 | 60 | 1008.4 |
| 20260505054631 | 35 | 91 | 6.4 | 6.4 | 0.00 | 0.00 | 0.00 | 59 | 1008.4 |
| 20260505054129 | 34 | 119 | 3.2 | 12.9 | 0.00 | 0.00 | 0.00 | 61 | 1008.4 |
| 20260505053626 | 34 | 84 | 12.9 | 20.9 | 0.00 | 0.00 | 0.00 | 60 | 1008.6 |
| 20260505053122 | 35 | 131 | 6.4 | 16.1 | 0.00 | 0.00 | 0.00 | 60 | 1008.6 |
| 20260505052619 | 34 | 7 | 9.7 | 12.9 | 0.00 | 0.00 | 0.00 | 60 | 1008.6 |
| 20260505052117 | 34 | 106 | 3.2 | 14.5 | 0.00 | 0.00 | 0.00 | 60 | 1008.8 |
| 20260505051614 | 34 | 65 | 3.2 | 6.4 | 0.00 | 0.00 | 0.00 | 61 | 1009.0 |
| 20260505051112 | 34 | 100 | 4.8 | 14.5 | 0.00 | 0.00 | 0.00 | 60 | 1009.0 |
| 20260505050609 | 34 | 65 | 3.2 | 4.8 | 0.00 | 0.00 | 0.00 | 60 | 1009.0 |
| 20260505050108 | 33 | 62 | 3.2 | 12.9 | 0.00 | 0.00 | 0.00 | 61 | 1009.1 |
| 20260505041537 | 33 | 47 | 17.7 | 25.7 | 0.00 | 0.00 | 0.00 | 62 | 1009.8 |
| 20260505041035 | 33 | 40 | 3.2 | 11.3 | 0.00 | 0.00 | 0.00 | 62 | 1010.1 |
| 20260505040532 | 33 | 60 | 4.8 | 9.7 | 0.00 | 0.00 | 0.00 | 62 | 1009.9 |
| 20260505040029 | 33 | 64 | 14.5 | 16.1 | 0.00 | 0.00 | 0.00 | 64 | 1010.1 |
| 20260505035525 | 32 | 29 | 1.6 | 9.7 | 0.00 | 0.00 | 0.00 | 64 | 1010.1 |
| 20260505035022 | 32 | 52 | 9.7 | 12.9 | 0.00 | 0.00 | 0.00 | 64 | 1010.4 |
| 20260505034518 | 33 | 79 | 11.3 | 14.5 | 0.00 | 0.00 | 0.00 | 63 | 1010.3 |
| 20260505034015 | 32 | 18 | 0.0 | 9.7 | 0.00 | 0.00 | 0.00 | 64 | 1010.3 |
| 20260505033512 | 33 | 45 | 4.8 | 6.4 | 0.00 | 0.00 | 0.00 | 63 | 1010.4 |
| 20260505033010 | 33 | 353 | 3.2 | 9.7 | 0.00 | 0.00 | 0.00 | 63 | 1010.4 |
| 20260505032508 | 34 | 303 | 8.0 | 9.7 | 0.00 | 0.00 | 0.00 | 61 | 1010.5 |
| 20260505032004 | 33 | 350 | 3.2 | 11.3 | 0.00 | 0.00 | 0.00 | 61 | 1010.6 |
| 20260505031501 | 33 | 38 | 1.6 | 9.7 | 0.00 | 0.00 | 0.00 | 63 | 1010.7 |
| 20260505030958 | 32 | 34 | 4.8 | 9.7 | 0.00 | 0.00 | 0.00 | 65 | 1010.7 |
| 20260505030454 | 33 | 5 | 8.0 | 12.9 | 0.00 | 0.00 | 0.00 | 63 | 1010.7 |
| 20260505025949 | 32 | 81 | 6.4 | 11.3 | 0.00 | 0.00 | 0.00 | 65 | 1010.7 |
| 20260505025447 | 32 | 44 | 8.0 | 12.9 | 0.00 | 0.00 | 0.00 | 65 | 1010.8 |
| 20260505024946 | 32 | 109 | 3.2 | 11.3 | 0.00 | 0.00 | 0.00 | 66 | 1010.4 |
| 20260505024442 | 32 | 65 | 1.6 | 6.4 | 0.00 | 0.00 | 0.00 | 66 | 1010.6 |
| 20260505023939 | 32 | 31 | 6.4 | 6.4 | 0.00 | 0.00 | 0.00 | 67 | 1010.7 |
| 20260505023436 | 32 | 58 | 1.6 | 17.7 | 0.00 | 0.00 | 0.00 | 69 | 1010.7 |
| 20260505022933 | 32 | 155 | 11.3 | 16.1 | 0.00 | 0.00 | 0.00 | 67 | 1010.6 |
| 20260505022431 | 32 | 60 | 6.4 | 11.3 | 0.00 | 0.00 | 0.00 | 67 | 1010.6 |
| 20260505021928 | 31 | 36 | 3.2 | 9.7 | 0.00 | 0.00 | 0.00 | 68 | 1010.9 |
| 20260505021425 | 32 | 110 | 6.4 | 12.9 | 0.00 | 0.00 | 0.00 | 69 | 1010.7 |
| 20260505020920 | 31 | 96 | 4.8 | 14.5 | 0.00 | 0.00 | 0.00 | 69 | 1010.7 |
| 20260505020416 | 31 | 83 | 8.0 | 14.5 | 0.00 | 0.00 | 0.00 | 70 | 1010.5 |
| 20260505015913 | 31 | 35 | 3.2 | 14.5 | 0.00 | 0.00 | 0.00 | 71 | 1010.7 |
| 20260505015410 | 31 | 106 | 12.9 | 16.1 | 0.00 | 0.00 | 0.00 | 69 | 1010.7 |
| 20260505014907 | 31 | 28 | 9.7 | 12.9 | 0.00 | 0.00 | 0.00 | 72 | 1010.6 |
| 20260505014404 | 31 | 68 | 11.3 | 14.5 | 0.00 | 0.00 | 0.00 | 71 | 1010.6 |
| 20260505013901 | 31 | 141 | 9.7 | 17.7 | 0.00 | 0.00 | 0.00 | 71 | 1010.7 |
| 20260505013358 | 31 | 30 | 3.2 | 6.4 | 0.00 | 0.00 | 0.00 | 71 | 1010.8 |
| 20260505012856 | 31 | 102 | 6.4 | 16.1 | 0.00 | 0.00 | 0.00 | 72 | 1010.8 |
| 20260505012354 | 30 | 77 | 6.4 | 12.9 | 0.00 | 0.00 | 0.00 | 73 | 1010.9 |
| 20260505011850 | 31 | 44 | 8.0 | 12.9 | 0.00 | 0.00 | 0.00 | 72 | 1010.9 |
| 20260505011347 | 30 | 27 | 12.9 | 17.7 | 0.00 | 0.00 | 0.00 | 74 | 1010.6 |
| 20260505010843 | 30 | 40 | 9.7 | 12.9 | 0.00 | 0.00 | 0.00 | 74 | 1010.8 |
| 20260505010338 | 31 | 54 | 12.9 | 16.1 | 0.00 | 0.00 | 0.00 | 73 | 1010.8 |
| 20260505005835 | 30 | 22 | 1.6 | 4.8 | 0.00 | 0.00 | 0.00 | 75 | 1010.9 |
| 20260505005332 | 30 | 47 | 4.8 | 11.3 | 0.00 | 0.00 | 0.00 | 76 | 1010.8 |
| 20260505004830 | 30 | 119 | 3.2 | 9.7 | 0.00 | 0.00 | 0.00 | 76 | 1010.7 |
| 20260505004326 | 30 | 1 | 12.9 | 16.1 | 0.00 | 0.00 | 0.00 | 76 | 1010.7 |
| 20260505003823 | 30 | 46 | 4.8 | 9.7 | 0.00 | 0.00 | 0.00 | 78 | 1010.8 |
| 20260505003320 | 29 | 25 | 6.4 | 9.7 | 0.00 | 0.00 | 0.00 | 79 | 1010.6 |
| 20260505002816 | 29 | 333 | 9.7 | 12.9 | 0.00 | 0.00 | 0.00 | 79 | 1010.5 |
| 20260505002314 | 29 | 359 | 6.4 | 6.4 | 0.00 | 0.00 | 0.00 | 80 | 1010.4 |
| 20260505001812 | 29 | 2 | 1.6 | 4.8 | 0.00 | 0.00 | 0.00 | 80 | 1010.3 |
| 20260505001308 | 29 | 51 | 3.2 | 6.4 | 0.00 | 0.00 | 0.00 | 81 | 1010.3 |
| 20260505000806 | 28 | 95 | 3.2 | 4.8 | 0.00 | 0.00 | 0.00 | 81 | 1010.1 |
| 20260505000303 | 28 | 45 | 4.8 | 9.7 | 0.00 | 0.00 | 0.00 | 82 | 1010.2 |
| 20260504235800 | 28 | 34 | 3.2 | 4.8 | 0.00 | 0.00 | 0.00 | 82 | 1010.2 |
| 20260504235256 | 28 | 21 | 1.6 | 9.7 | 0.00 | 0.00 | 0.00 | 82 | 1009.9 |
| 20260504234753 | 28 | 64 | 4.8 | 6.4 | 0.00 | 0.00 | 0.00 | 83 | 1009.8 |
| 20260504234251 | 28 | 131 | 4.8 | 6.4 | 0.00 | 0.00 | 0.00 | 83 | 1010.0 |
| 20260504233747 | 28 | 37 | 4.8 | 6.4 | 0.00 | 0.00 | 0.00 | 83 | 1009.6 |
| 20260504233243 | 28 | 42 | 3.2 | 14.5 | 0.00 | 0.00 | 0.00 | 84 | 1009.7 |
| 20260504232740 | 28 | 36 | 8.0 | 12.9 | 0.00 | 0.00 | 0.00 | 84 | 1009.6 |
| 20260504232237 | 28 | 26 | 6.4 | 9.7 | 0.00 | 0.00 | 0.00 | 85 | 1009.9 |
| 20260504231734 | 28 | 354 | 4.8 | 12.9 | 0.00 | 0.00 | 0.00 | 85 | 1009.7 |
| 20260504231230 | 28 | 56 | 9.7 | 11.3 | 0.00 | 0.00 | 0.00 | 85 | 1009.7 |
| 20260504230726 | 28 | 56 | 8.0 | 9.7 | 0.00 | 0.00 | 0.00 | 85 | 1009.6 |
| 20260504230225 | 28 | 26 | 6.4 | 9.7 | 0.00 | 0.00 | 0.00 | 85 | 1009.6 |
| 20260504225723 | 28 | 43 | 0.0 | 3.2 | 0.00 | 0.00 | 0.00 | 85 | 1009.6 |
| 20260504225219 | 28 | 32 | 3.2 | 4.8 | 0.00 | 0.00 | 0.00 | 85 | 1009.6 |
| 20260504224716 | 28 | 83 | 4.8 | 9.7 | 0.00 | 0.00 | 0.00 | 85 | 1009.5 |
| 20260504224214 | 28 | 58 | 3.2 | 6.4 | 0.00 | 0.00 | 0.00 | 85 | 1009.5 |
| 20260504223710 | 28 | 22 | 1.6 | 4.8 | 0.00 | 0.00 | 0.00 | 85 | 1009.5 |
| 20260504223205 | 28 | 44 | 4.8 | 6.4 | 0.00 | 0.00 | 0.00 | 84 | 1009.6 |
| 20260504222703 | 28 | 51 | 6.4 | 9.7 | 0.00 | 0.00 | 0.00 | 84 | 1009.4 |
| 20260504222159 | 28 | 55 | 4.8 | 4.8 | 0.00 | 0.00 | 0.00 | 84 | 1009.5 |
| 20260504221657 | 28 | 50 | 3.2 | 6.4 | 0.00 | 0.00 | 0.00 | 84 | 1009.5 |
| 20260504221154 | 28 | 34 | 6.4 | 9.7 | 0.00 | 0.00 | 0.00 | 83 | 1009.5 |
| 20260504220650 | 28 | 43 | 1.6 | 4.8 | 0.00 | 0.00 | 0.00 | 83 | 1009.5 |
| 20260504220148 | 28 | 46 | 3.2 | 6.4 | 0.00 | 0.00 | 0.00 | 83 | 1009.3 |
| 20260504215644 | 28 | 32 | 0.0 | 4.8 | 0.00 | 0.00 | 0.00 | 83 | 1009.4 |
| 20260504215142 | 28 | 56 | 3.2 | 9.7 | 0.00 | 0.00 | 0.00 | 83 | 1009.4 |
| 20260504214637 | 28 | 97 | 3.2 | 6.4 | 0.00 | 0.00 | 0.00 | 83 | 1009.2 |
| 20260504214134 | 28 | 130 | 4.8 | 9.7 | 0.00 | 0.00 | 0.00 | 83 | 1009.4 |
| 20260504213630 | 28 | 73 | 1.6 | 11.3 | 0.00 | 0.00 | 0.00 | 83 | 1009.3 |
| 20260504213127 | 28 | 45 | 4.8 | 9.7 | 0.00 | 0.00 | 0.00 | 83 | 1009.4 |
| 20260504212624 | 28 | 90 | 3.2 | 9.7 | 0.00 | 0.00 | 0.00 | 83 | 1009.5 |
| 20260504212120 | 28 | 100 | 3.2 | 6.4 | 0.00 | 0.00 | 0.00 | 83 | 1009.4 |
| 20260504211618 | 28 | 64 | 3.2 | 9.7 | 0.00 | 0.00 | 0.00 | 83 | 1009.4 |
| 20260504211114 | 28 | 55 | 4.8 | 9.7 | 0.00 | 0.00 | 0.00 | 83 | 1009.4 |
| 20260504210612 | 28 | 100 | 1.6 | 6.4 | 0.00 | 0.00 | 0.00 | 83 | 1009.4 |
| 20260504210108 | 28 | 47 | 1.6 | 6.4 | 0.00 | 0.00 | 0.00 | 83 | 1009.2 |
| 20260504205606 | 28 | 112 | 8.0 | 9.7 | 0.00 | 0.00 | 0.00 | 82 | 1009.4 |
| 20260504205103 | 28 | 126 | 3.2 | 9.7 | 0.00 | 0.00 | 0.00 | 83 | 1009.5 |
| 20260504204601 | 28 | 49 | 4.8 | 11.3 | 0.00 | 0.00 | 0.00 | 83 | 1009.4 |
| 20260504204100 | 28 | 160 | 8.0 | 11.3 | 0.00 | 0.00 | 0.00 | 83 | 1009.3 |
| 20260504203558 | 28 | 149 | 3.2 | 16.1 | 0.00 | 0.00 | 0.00 | 83 | 1009.3 |
| 20260504203055 | 28 | 52 | 1.6 | 6.4 | 0.00 | 0.00 | 0.00 | 83 | 1009.4 |
| 20260504202550 | 28 | 77 | 3.2 | 6.4 | 0.00 | 0.00 | 0.00 | 83 | 1009.4 |
| 20260504202048 | 28 | 28 | 1.6 | 4.8 | 0.00 | 0.00 | 0.00 | 83 | 1009.2 |
| 20260504201544 | 28 | 66 | 1.6 | 6.4 | 0.00 | 0.00 | 0.00 | 84 | 1009.4 |
| 20260504201043 | 28 | 28 | 3.2 | 9.7 | 0.00 | 0.00 | 0.00 | 84 | 1009.4 |
| 20260504200538 | 28 | 82 | 3.2 | 6.4 | 0.00 | 0.00 | 0.00 | 84 | 1009.3 |
| 20260504200036 | 28 | 87 | 1.6 | 6.4 | 0.00 | 0.00 | 0.00 | 84 | 1009.2 |
| 20260504195532 | 28 | 79 | 3.2 | 12.9 | 0.00 | 0.00 | 0.00 | 84 | 1009.2 |
| 20260504195028 | 28 | 67 | 3.2 | 14.5 | 0.00 | 0.00 | 0.00 | 84 | 1009.2 |
| 20260504194525 | 28 | 94 | 6.4 | 11.3 | 0.00 | 0.00 | 0.00 | 84 | 1009.1 |
| 20260504194020 | 28 | 93 | 14.5 | 16.1 | 0.00 | 0.00 | 0.00 | 84 | 1009.1 |
| 20260504193517 | 28 | 107 | 8.0 | 12.9 | 0.00 | 0.00 | 0.00 | 84 | 1009.3 |
| 20260504193017 | 28 | 143 | 3.2 | 12.9 | 0.00 | 0.00 | 0.00 | 84 | 1009.1 |
| 20260504192514 | 28 | 80 | 6.4 | 9.7 | 0.00 | 0.00 | 0.00 | 84 | 1009.0 |
| 20260504192012 | 28 | 54 | 11.3 | 12.9 | 0.00 | 0.00 | 0.00 | 84 | 1009.1 |
| 20260504191509 | 28 | 118 | 8.0 | 14.5 | 0.00 | 0.00 | 0.00 | 84 | 1008.9 |
| 20260504191005 | 28 | 90 | 4.8 | 12.9 | 0.00 | 0.00 | 0.00 | 84 | 1009.0 |
| 20260504190501 | 28 | 73 | 8.0 | 9.7 | 0.00 | 0.00 | 0.00 | 84 | 1009.0 |
| 20260504185957 | 28 | 67 | 14.5 | 16.1 | 0.00 | 0.00 | 0.00 | 84 | 1008.9 |
| 20260504185455 | 28 | 129 | 4.8 | 27.4 | 0.00 | 0.00 | 0.00 | 84 | 1009.0 |
| 20260504184951 | 28 | 60 | 8.0 | 11.3 | 0.00 | 0.00 | 0.00 | 84 | 1009.1 |
| 20260504184447 | 28 | 98 | 6.4 | 14.5 | 0.00 | 0.00 | 0.00 | 83 | 1009.1 |
| 20260504183942 | 28 | 53 | 1.6 | 17.7 | 0.00 | 0.00 | 0.00 | 83 | 1009.1 |
| 20260504183440 | 28 | 63 | 6.4 | 11.3 | 0.00 | 0.00 | 0.00 | 83 | 1009.2 |
| 20260504182938 | 28 | 86 | 9.7 | 17.7 | 0.00 | 0.00 | 0.00 | 83 | 1009.4 |
| 20260504182434 | 28 | 50 | 9.7 | 14.5 | 0.00 | 0.00 | 0.00 | 83 | 1009.4 |
| 20260504181932 | 28 | 101 | 16.1 | 22.5 | 0.00 | 0.00 | 0.00 | 83 | 1009.3 |
| 20260504181429 | 28 | 106 | 11.3 | 14.5 | 0.00 | 0.00 | 0.00 | 82 | 1009.2 |
| 20260504180927 | 28 | 68 | 6.4 | 14.5 | 0.00 | 0.00 | 0.00 | 82 | 1009.4 |
| 20260504180426 | 28 | 86 | 6.4 | 9.7 | 0.00 | 0.00 | 0.00 | 82 | 1009.7 |
| 20260504175924 | 28 | 112 | 1.6 | 9.7 | 0.00 | 0.00 | 0.00 | 82 | 1009.8 |
| 20260504175420 | 28 | 97 | 11.3 | 16.1 | 0.00 | 0.00 | 0.00 | 82 | 1009.8 |
| 20260504174918 | 28 | 99 | 6.4 | 16.1 | 0.00 | 0.00 | 0.00 | 82 | 1009.6 |
| 20260504174415 | 28 | 78 | 4.8 | 12.9 | 0.00 | 0.00 | 0.00 | 81 | 1009.7 |
| 20260504173913 | 29 | 55 | 4.8 | 14.5 | 0.00 | 0.00 | 0.00 | 81 | 1009.7 |
| 20260504173409 | 29 | 98 | 3.2 | 12.9 | 0.00 | 0.00 | 0.00 | 81 | 1009.8 |
| 20260504172907 | 29 | 113 | 6.4 | 9.7 | 0.00 | 0.00 | 0.00 | 81 | 1009.9 |
| 20260504172402 | 29 | 101 | 4.8 | 9.7 | 0.00 | 0.00 | 0.00 | 81 | 1009.9 |
| 20260504171859 | 29 | 98 | 9.7 | 12.9 | 0.00 | 0.00 | 0.00 | 81 | 1010.0 |
| 20260504171356 | 29 | 37 | 6.4 | 12.9 | 0.00 | 0.00 | 0.00 | 81 | 1009.9 |
| 20260504170853 | 29 | 93 | 9.7 | 16.1 | 0.00 | 0.00 | 0.00 | 81 | 1010.2 |
| 20260504170350 | 29 | 122 | 6.4 | 22.5 | 0.00 | 0.00 | 0.00 | 81 | 1010.4 |